EW8903 Weather Reports


time (UTC)temp
F
wind
direction
speed
knots
gust
knots
rain 1hr
in
rain 24hr
in
rain mn
in
humidity
%
barometer
mb
20260502151520 42 352 2.6 11.3 0.00 0.00 0.00 55 1017.6
20260502123037 37 16 2.6 7.0 0.00 0.00 0.00 75 1018.4
20260502121533 36 12 2.6 6.1 0.00 0.00 0.00 77 1018.4
20260502114555 35 315 4.3 9.6 0.00 0.00 0.00 82 1018.3
20260502113149 34 321 3.5 8.7 0.00 0.00 0.00 83 1018.3
20260502111555 34 285 2.6 7.8 0.00 0.00 0.00 83 1018.2
20260502110048 0 0.0 0.0 0.00 0.00 0.00 1018.1
20260502104543 0 0.0 0.0 0.00 0.00 0.00 1017.9
20260502103037 0 0.0 0.0 0.00 0.00 0.00 1017.7
20260502101527 0 0.0 0.0 0.00 0.00 0.00 1017.8
20260502071526 37 336 2.6 5.2 0.00 0.00 0.00 72 1017.3
20260502070025 37 335 1.7 6.1 0.00 0.00 0.00 71 1017.3
20260502064529 38 354 3.5 7.0 0.00 0.00 0.00 71 1017.4
20260502063024 38 349 3.5 7.8 0.00 0.00 0.00 70 1017.4
20260502063022 38 348 3.5 7.8 0.00 0.00 0.00 70 1017.4
20260502061522 38 332 3.5 6.1 0.00 0.00 0.00 71 1017.4
20260502060023 39 348 2.6 5.2 0.00 0.00 0.00 73 1017.4
20260502054517 39 333 2.6 6.1 0.00 0.00 0.00 70 1017.3
20260502053016 40 360 3.5 11.3 0.00 0.00 0.00 65 1017.3
20260502051515 40 359 7.0 12.2 0.00 0.00 0.00 66 1017.2
20260502050014 40 360 5.2 13.0 0.00 0.00 0.00 62 1017.2
20260502044510 41 356 8.7 12.2 0.00 0.00 0.00 64 1017.2
20260502043014 41 356 10.4 13.0 0.00 0.00 0.00 60 1017.1
20260502041509 40 342 3.5 7.0 0.00 0.00 0.00 66 1017.1
20260502040012 40 340 2.6 5.2 0.00 0.00 0.00 62 1017.0
20260502034502 40 340 2.6 8.7 0.00 0.00 0.00 59 1016.9
20260502033003 41 330 1.7 9.6 0.00 0.00 0.00 57 1016.9
20260502031600 41 346 4.3 11.3 0.00 0.00 0.00 57 1016.8
20260502030100 41 356 3.5 9.6 0.00 0.00 0.00 60 1016.7
20260502024535 41 324 2.6 11.3 0.00 0.00 0.00 59 1016.7
20260502023028 41 338 4.3 7.8 0.00 0.00 0.00 58 1016.6
20260502021524 42 353 1.7 11.3 0.00 0.00 0.00 59 1016.6
20260502020023 41 350 2.6 5.2 0.00 0.00 0.00 57 1016.6
20260502014523 42 352 3.5 8.7 0.00 0.00 0.00 57 1016.4
20260502013020 42 354 3.5 8.7 0.00 0.00 0.00 57 1016.3
20260502011604 43 1 4.3 14.8 0.00 0.00 0.00 61 1016.1
20260502010048 43 352 7.0 13.0 0.00 0.00 0.00 62 1016.0
20260502004556 43 342 4.3 8.7 0.00 0.00 0.00 53 1015.8
20260502003042 43 326 2.6 7.8 0.00 0.00 0.00 52 1015.8
20260502001539 43 332 3.5 9.6 0.00 0.00 0.00 52 1015.7
20260502000045 43 325 5.2 11.3 0.00 0.00 0.00 51 1015.5
20260501234539 43 333 5.2 11.3 0.00 0.00 0.00 51 1015.4
20260501233037 43 356 5.2 9.6 0.00 0.00 0.00 51 1015.4
20260501231539 44 324 4.3 0.0 0.00 0.00 0.00 50 1015.2
20260501230030 44 347 2.6 10.4 0.00 0.00 0.00 51 1015.1
20260501224527 44 324 4.3 11.3 0.00 0.00 0.00 51 1015.1
20260501223026 44 356 3.5 11.3 0.00 0.00 0.00 49 1015.0
20260501221526 44 6 7.0 13.0 0.00 0.00 0.00 49 1014.9
20260501220038 44 6 7.8 15.6 0.00 0.00 0.00 55 1014.8
20260501214524 44 12 12.2 17.4 0.00 0.00 0.00 54 1014.6
20260501213029 45 13 11.3 17.4 0.00 0.00 0.00 55 1014.6
20260501211522 45 8 14.8 17.4 0.00 0.00 0.00 54 1014.4
20260501210022 46 1 8.7 13.0 0.00 0.00 0.00 48 1014.3
20260501204517 46 305 6.1 10.4 0.00 0.00 0.00 49 1014.3
20260501203019 46 354 4.3 10.4 0.00 0.00 0.00 48 1014.1
20260501201513 45 354 6.1 9.6 0.00 0.00 0.00 51 1014.1
20260501200011 44 94 4.3 7.8 0.00 0.00 0.00 57 1014.1
20260501194508 44 99 0.9 4.3 0.00 0.00 0.00 59 1014.2
20260501193017 44 110 1.7 7.0 0.00 0.00 0.00 60 1014.1
20260501191504 43 122 2.6 7.0 0.00 0.00 0.00 62 1014.3
20260501190002 43 111 2.6 7.0 0.00 0.00 0.00 64 1014.3
20260501184600 43 104 2.6 7.0 0.00 0.00 0.00 65 1014.3
20260501183102 43 90 2.6 7.8 0.00 0.02 0.00 62 1014.3
20260501181655 43 110 6.1 9.6 0.00 0.02 0.00 65 1014.3
20260501180053 43 98 7.0 9.6 0.00 0.02 0.00 68 1014.3
20260501174550 42 101 6.1 7.8 0.00 0.02 0.00 67 1014.3
20260501173016 42 81 3.5 6.1 0.00 0.02 0.00 68 1014.4
20260501171515 42 68 5.2 8.7 0.00 0.02 0.00 68 1014.5
20260501170007 42 79 5.2 9.6 0.00 0.02 0.00 70 1014.5
20260501164509 41 67 6.1 8.7 0.00 0.02 0.00 69 1014.5
20260501163003 41 68 8.7 9.6 0.00 0.02 0.00 70 1014.6
20260501161504 41 57 7.8 10.4 0.00 0.02 0.00 71 1014.7